Location: Oakhurst
(33.6448°N, 111.9543°W)
Time: 02:26:20
(UTC+00:00)

X-37B - Pass Details

Date: 16 May 2021
Orbit: 386 x 389 km, 45.0° (Epoch: 10 June)

Event Time Altitude Azimuth Distance (km) Brightness Sun altitude
Rises 04:36:11 0° 289° (WNW) 2,268 5.5 -23.7°
Reaches altitude 10° 04:38:35 10° 272° (W) 1,410 4.0 -24.1°
Enters shadow 04:39:34 15° 257° (WSW) 1,141 3.3 -24.2°
